This demonstration page uses our WeatherBlox Daily Observations layout. Learn more.

Left ArrowRight Arrow

Hourly Observations for April 29, 2015

Temp ( °F °C ) Dew Point ( °F °C ) Humidity (%) Winds ( mph kmh ) Pressure ( in mb ) Visibility ( mi km ) Precip ( " mm )
12:16 am 00:16 Clear 46 8 34 1 62 62 NNE 3 6 30 1016 10 16.0934 N/A
12:36 am 00:36 Clear 46 8 32 0 57 57 N 3 6 30 1016 10 16.0934 N/A
12:56 am 00:56 Clear 45 7 34 1 66 66 NNW 5 7 30 1016 10 16.0934 N/A
1:15 am 01:15 Clear 45 7 32 0 61 61 NNW 3 6 30 1016 10 16.0934 N/A
1:36 am 01:36 Clear 43 6 36 2 76 76 N 3 6 30 1016 10 16.0934 N/A
1:56 am 01:56 Clear 45 7 34 1 66 66 Calm 29.97 1015 10 16.0934 N/A
2:16 am 02:16 Clear 45 7 34 1 66 66 Calm 29.97 1015 10 16.0934 N/A
2:36 am 02:36 Clear 45 7 34 1 66 66 Calm 29.97 1015 10 16.0934 N/A
2:56 am 02:56 Clear 43 6 34 1 71 71 Calm 29.97 1015 10 16.0934 N/A
3:16 am 03:16 Clear 41 5 36 2 81 81 Calm 29.94 1014 10 16.0934 N/A
3:36 am 03:36 Clear 41 5 41 5 100 100 Calm 29.94 1014 10 16.0934 N/A
3:56 am 03:56 Clear 43 6 36 2 76 76 Calm 29.94 1014 10 16.0934 N/A
4:16 am 04:16 Clear 43 6 34 1 71 71 Calm 29.94 1014 10 16.0934 N/A
4:35 am 04:35 Clear 41 5 36 2 81 81 Calm 29.94 1014 10 16.0934 N/A
4:56 am 04:56 Clear 39 4 36 2 87 87 Calm 29.94 1014 10 16.0934 N/A
5:16 am 05:16 Clear 39 4 N/A N/A Calm 29.94 1014 10 16.0934 N/A
5:36 am 05:36 Clear 39 4 N/A N/A N 3 6 29.94 1014 10 16.0934 N/A
5:56 am 05:56 Clear 37 3 N/A N/A Calm 29.94 1014 10 16.0934 N/A
6:16 am 06:16 Clear 39 4 N/A N/A Calm 29.94 1014 10 16.0934 N/A
6:36 am 06:36 Clear 39 4 N/A N/A N 3 6 29.94 1014 10 16.0934 N/A
6:56 am 06:56 Sunny 37 3 N/A N/A Calm 29.94 1014 10 16.0934 N/A
7:16 am 07:16 Sunny 37 3 N/A N/A NNW 3 6 29.94 1014 10 16.0934 N/A
7:36 am 07:36 Partly Cloudy 41 5 N/A N/A Calm 29.94 1014 10 16.0934 N/A
7:56 am 07:56 Mostly Cloudy 45 7 N/A N/A NNW 3 6 29.94 1014 10 16.0934 N/A
8:16 am 08:16 Mostly Cloudy 46 8 46 8 100 100 N 6 9 29.94 1014 10 16.0934 N/A
8:36 am 08:36 Mostly Cloudy 48 9 37 3 66 66 NNW 6 9 29.94 1014 10 16.0934 N/A
8:56 am 08:56 Partly Cloudy 50 10 36 2 58 58 N 5 7 29.94 1014 10 16.0934 N/A
9:16 am 09:16 Partly Cloudy 50 10 36 2 58 58 N 5 7 29.94 1014 10 16.0934 N/A
9:36 am 09:36 Partly Cloudy 52 11 34 1 50 50 N 3 6 29.91 1013 10 16.0934 N/A
9:56 am 09:56 Partly Cloudy 54 12 34 1 47 47 Calm 29.91 1013 10 16.0934 N/A
10:16 am 10:16 Sunny 55 13 32 0 41 41 Calm 29.91 1013 10 16.0934 N/A
10:35 am 10:35 Sunny 57 14 30 -1 36 36 Calm 29.91 1013 10 16.0934 N/A
10:56 am 10:56 Sunny 59 15 32 0 36 36 N 3 6 29.91 1013 10 16.0934 N/A
11:15 am 11:15 Sunny 59 15 30 -1 34 34 NNW 5 7 29.91 1013 10 16.0934 N/A
11:36 am 11:36 Sunny 59 15 28 -2 31 31 Calm 29.91 1013 10 16.0934 N/A
11:56 am 11:56 Sunny 61 16 28 -2 29 29 Calm 29.91 1013 10 16.0934 N/A
12:16 pm 12:16 Sunny 63 17 28 -2 27 27 Calm 29.91 1013 7 11.26538 N/A
12:36 pm 12:36 Sunny 63 17 27 -3 25 25 Calm 29.88 1012 7 11.26538 N/A
12:56 pm 12:56 Sunny 64 18 28 -2 26 26 N 3 6 29.88 1012 10 16.0934 N/A
1:16 pm 13:16 Partly Cloudy 63 17 27 -3 25 25 Calm 29.88 1012 10 16.0934 N/A
1:35 pm 13:35 Sunny 61 16 27 -3 27 27 Calm 29.88 1012 10 16.0934 N/A
1:56 pm 13:56 Partly Cloudy 61 16 28 -2 29 29 Calm 29.88 1012 10 16.0934 N/A
2:16 pm 14:16 Partly Cloudy 63 17 25 -4 24 24 Calm 29.88 1012 10 16.0934 N/A
2:36 pm 14:36 Sunny 63 17 28 -2 27 27 Calm 29.85 1011 10 16.0934 N/A
2:56 pm 14:56 Sunny 61 16 27 -3 27 27 N 3 6 29.85 1011 10 16.0934 N/A
3:16 pm 15:16 Sunny 63 17 28 -2 27 27 NNW 5 7 29.85 1011 10 16.0934 N/A
3:36 pm 15:36 Sunny 63 17 27 -3 25 25 Calm 29.85 1011 10 16.0934 N/A
3:56 pm 15:56 Sunny 63 17 27 -3 25 25 Calm 29.83 1010 10 16.0934 N/A
4:16 pm 16:16 Sunny 63 17 28 -2 27 27 NW 7 11 29.83 1010 10 16.0934 N/A
4:36 pm 16:36 Sunny 63 17 27 -3 25 25 Calm 29.83 1010 10 16.0934 N/A
4:56 pm 16:56 Sunny 63 17 27 -3 25 25 NNW 5 7 29.83 1010 10 16.0934 N/A
5:16 pm 17:16 Sunny 64 18 27 -3 24 24 N 5 7 29.83 1010 10 16.0934 N/A
5:36 pm 17:36 Sunny 64 18 28 -2 26 26 NNE 6 9 29.83 1010 10 16.0934 N/A
5:56 pm 17:56 Sunny 63 17 28 -2 27 27 N 3 6 29.83 1010 10 16.0934 N/A
6:16 pm 18:16 Partly Cloudy 63 17 28 -2 27 27 N 3 6 29.83 1010 10 16.0934 N/A
6:36 pm 18:36 Partly Cloudy 61 16 30 -1 31 31 NE 6 9 29.83 1010 10 16.0934 N/A
6:56 pm 18:56 Partly Cloudy 61 16 32 0 34 34 NE 7 11 29.83 1010 10 16.0934 N/A
7:16 pm 19:16 Partly Cloudy 61 16 32 0 34 34 NNE 7 11 29.83 1010 10 16.0934 N/A
7:36 pm 19:36 Partly Cloudy 61 16 32 0 34 34 N 5 7 29.83 1010 10 16.0934 N/A
7:55 pm 19:55 Partly Cloudy 59 15 34 1 39 39 N 5 7 29.83 1010 10 16.0934 N/A
8:16 pm 20:16 Sunny 57 14 37 3 48 48 N 5 7 29.83 1010 10 16.0934 N/A
8:36 pm 20:36 Clear 55 13 37 3 51 51 NNW 5 7 29.83 1010 10 16.0934 N/A
8:56 pm 20:56 Clear 55 13 34 1 44 44 NNW 5 7 29.83 1010 10 16.0934 N/A
9:16 pm 21:16 Clear 55 13 32 0 41 41 NW 3 6 29.83 1010 10 16.0934 N/A
9:36 pm 21:36 Clear 54 12 37 3 54 54 Calm 29.83 1010 10 16.0934 N/A
9:56 pm 21:56 Clear 52 11 37 3 58 58 Calm 29.83 1010 10 16.0934 N/A
10:15 pm 22:15 Clear 52 11 39 4 62 62 Calm 29.83 1010 10 16.0934 N/A
10:36 pm 22:36 Clear 50 10 41 5 71 71 Calm 29.83 1010 10 16.0934 N/A
10:55 pm 22:55 Clear 52 11 39 4 62 62 Calm 29.83 1010 10 16.0934 N/A
11:16 pm 23:16 Clear 52 11 37 3 58 58 NNW 10 17 29.83 1010 10 16.0934 N/A
11:36 pm 23:36 Clear 52 11 37 3 58 58 NNW 10 17 29.83 1010 10 16.0934 N/A
11:56 pm 23:56 Clear 52 11 36 2 54 54 NNW 10 17 29.83 1010 10 16.0934 N/A

Powered by AerisWeather